Regional Weather Roundup
Issued by NWS Goodland, KS

Home | Current Version | Previous Version | Text Only | Print | Product List | Glossary Off
Versions: 1 2 3 4 5 6 7 8 9 10 11 12 13 14 15 16 17 18 19 20 21 22 23 24 25 26 27 28 29 30 31 32 33 34 35 36 37 38 39 40 41 42 43 44 45 46 47 48 49 50

000
ASUS43 KGLD 011859
RWRGLD

GOODLAND FORECAST AREA HOURLY WEATHER ROUNDUP
NATIONAL WEATHER SERVICE GOODLAND KS
100 PM MDT WED OCT 01 2014

...OFFICIAL OBSERVATIONS...

CITY           SKY/WX    TMP DP  RH WIND       PRES   REMARKS
GOODLAND KS    MOSUNNY   73  40  30 VRB5      29.83F
HILL CITY KS   MOSUNNY   75  60  59 CALM      29.76F
IMPERIAL NEB   MOSUNNY   70  43  37 N6        29.82F
MCCOOK NEB     MOSUNNY   75  47  36 VRB3      29.79F
AKRON CO       MOSUNNY   65  44  46 NE12      29.87F
BURLINGTON CO  SUNNY     71  39  31 VRB7      29.85F
LIMON CO       MOSUNNY   65  37  35 E9        29.87F
$$

...UNOFFICIAL OBSERVATIONS...

CITY           SKY/WX    TMP DP  RH WIND       PRES   REMARKS
COLBY KS       SUNNY     75  48  38 N6        29.81F
GOVE KS          N/A     77  32  19 MISG        N/A
NORTON KS      SUNNY     75  54  46 CALM      29.76F
SHARON SPRINGS   N/A     75  47  37 NE7         N/A
TRENTON NEB      N/A     73  32  22 NW5         N/A
KIT CARSON CO    N/A     69  42  37 MISG        N/A
$$



USA.gov is the U.S. government's official web portal to all federal, state and local government web resources and services.